sat.trackr.live / text

‹ back to catalog

STARLINK-11681 [DTC]

NORAD 63755 · 2025-089E

PAYLOAD ACTIVE UNKNOWN

§ Identity

Operator
Country
US
Launch date
2025-04-29
Launch site
AFETR
Launch vehicle
Mass (kg)
RCS (m²)

Purposes: comms

External: N2YO · Heavens-Above · Gunter

§ Orbital elements

Epoch: 2026-05-24T13:11:40.862400Z

Period
91.67 min
Inclination
43.0014°
Eccentricity
0.0001581
Mean motion
15.70842244 rev/d
Perigee alt
355.4 km
Apogee alt
357.6 km
Semi-major
6,734.6 km
B*
1.2533e-3
RAAN
195.2261°
Arg perigee
264.1698°
Mean anomaly
95.8990°
Rev number
6,206

§ Raw data

STARLINK-11681 [DTC]1 63755U 25089E   26144.54977850  .00163589  00000+0  12533-2 0  99992 63755  43.0014 195.2261 0001581 264.1698  95.8990 15.70842244 62068

JSON: /api/v1/satellites/63755 · /tle

For live sub-satellite position, see the globe view (requires WebGL).

§ Visibility from observer

Set your observer location to see the next 7 days of passes ≥ 10°. The values pass through the URL so the page stays shareable.

No JS? Fill the form by hand. The geolocation button needs JavaScript.